Location: Grand Rapids
(42.9630°N, 85.6680°W)
Time: 03:21:48
(UTC-04:00)

S-56A Canister/Altair - Pass Details

Date: 05 June 2024
Orbit: 637 x 2489 km, 38.9° (Epoch: 22 June)

Event Time Altitude Azimuth Distance (km) Brightness Sun altitude
Rises 07:16:56 0° 274° (W) 6,164 11.6 11.0°
Reaches altitude 10° 07:21:03 10° 273° (W) 5,127 11.2 11.7°
Maximum altitude 07:35:37 69° 195° (SSW) 2,255 10.0 14.2°
Drops below altitude 10° 07:46:27 10° 115° (ESE) 3,919 12.0 16.1°
Sets 07:49:11 0° 113° (ESE) 4,683 12.4 16.6°
